Simultaneous Nadir Overpasses (SNOs) Predictions

Prediction of SNOs between NOAA-20 and PACE Satellite Orbit:

Table of predicted SNOs for the next 14.0 days since TLE Epoch: 5/18/2024
Index Date (NOAA-20) Time (NOAA-20) Lat,Lon (NOAA-20) SZA (NOAA-20 ) Date (PACE) Time (PACE) Lat,Lon (PACE) SZA (PACE ) Distance(km) Time Diff (sec)
1 05/19/2024 16:58:45 -80.01, 66.68 117.78 05/19/2024 16:58:41 -80.01, 66.77 117.79 1.85 4
2 05/21/2024 21:25:05 -79.98, 0.41 118.27 05/21/2024 21:24:53 -79.98, 0.48 118.28 1.65 12
3 05/24/2024 01:00:57 80.44, 121.23 62.28 05/24/2024 01:02:10 80.51, 121.54 62.25 9.16 73
4 05/24/2024 01:51:25 -79.99, -66.22 118.67 05/24/2024 01:51:04 -79.98, -66.08 118.68 2.94 21
5 05/26/2024 05:27:05 80.11, 58.63 61.19 05/26/2024 05:28:09 80.11, 58.63 61.16 0.08 64
6 05/26/2024 06:17:43 -79.91,-132.03 119.19 05/26/2024 06:17:13 -79.91,-132.07 119.18 0.75 30
7 05/28/2024 09:53:24 80.06, -7.51 60.77 05/28/2024 09:54:18 80.07, -7.64 60.76 2.56 54
8 05/28/2024 10:44:02 -79.86, 161.80 119.62 05/28/2024 10:43:22 -79.87, 161.67 119.58 2.79 40
9 05/30/2024 14:19:46 80.11, -74.63 60.55 05/30/2024 14:20:28 80.11, -74.48 60.51 3.02 42



Historial Predications of SNOs between NOAA-20 and PACE
